LiveATC.Net - Listen to live air traffic control over the Internet!


ICAO: CYQM  IATA: YQM   Airport: Greater Moncton International Airport
City: Moncton   State/Province: New Brunswick
Country: Canada   Continent: North America
CYQM METAR Weather: CYQM 302000Z 01004KT 250V030 15SM FEW060 BKN260 18/05 A3044 RMK SC1CI5 SC TR SLP311
CYQM Flight Activity (FlightAware)
CYQM Gnd/Twr/Center/Misc
Feed Status: DOWN
Last heard on: 2016-09-25 15:07:03 (5 days 5 hours 28 minutes ago)
CYQM Gnd/Twr/Center/Misc Audio Archives
FacilityFrequency
Moncton Center (FL280/below)124.400
Moncton Flight College123.350
Moncton Ground121.800
Moncton Tower120.800


NOTICE

Unauthorized use prohibited. See LiveATC.net Terms of Service


Find LiveATC Audio Streams


Airport/ARTCC Code

Frequency
(e.g., 124.400, 128.75)
Site-wide search

Browse LiveATC Feeds
LiveATC Coverage Map
Top 50 LiveATC Feeds
Bad Weather Areas

LiveATC FAQ
Offer a LiveATC Feed
Contact LiveATC.net
Press Inquiries

LiveATC on iPhone
LiveATC on Android

Windows Phone
Windows 8/10

LiveATC Mobile
(Mobile browser)

ATC Audio Archives
Interesting Recordings

LiveATC Forums


Home Page
About LiveATC.net
Make a Donation
LiveATC Store

Terms of Use
Privacy Policy

Canadian Air Freqs

AIRMETs/SIGMETs

FAA Airport Status
Nat'l Airspace Status
Arrival Demand Charts


Server Software By:
Icecast.org
Liquidsoap